Showing default

TIBA-1, 44800

Orbit data source: Space-Track

TIBA-1, 44800 is a payload satellite owned by EgSA (EG) in GEO that was launched on Tue, 26 Nov 2019 UTC via an ARIANE 5ECA launch vehicle from the French Guiana (FRGUI). Payload-class satellites include a variety of spacecraft equipped with specific instruments for various scientific and technological missions. These include communications satellites like Starlink; space stations such as the ISS; scientific satellites like the Hubble; Earth observation satellites from companies like Planet Labs, Umbra, and HawkEye 360; GPS; miniature CubeSats for education and research; and military/defense satellites.

Not visible in the next 10 days
Identifier
44800, 2019-080A
Orbit
GEO
Last TLE update
11 hours ago
Origin
Manufacturer
Airbus/Toulouse
Mission
Operational Civil Communications
Bus & Motor
EUROSTAR 3000, R-4D?
Mass
5,600 kg wet, ~3,000 kg dry
Launch date (UTC)
2019-11-26 (6 years ago)
Launch vehicle
ARIANE 5ECA
Launch site
French Guiana (FRGUI)
Object type
Payload
Rocket body
Debris
Shape & HBR
Box + 2 Pan, Unknown HBR
Radar Cross Section
33.163 m²

Expand to show TLE details & history

TLE from 11 hours ago
0 TIBA-1
1 44800U 19080A   25183.93056731  .00000164  00000-0  00000-0 0  9998
2 44800   0.0529  17.1561 0002090  94.4665 180.0573  1.00272036 20557
Epoch: 2025-07-02T22:20Z
TLE epoch observation values (Epoch: 2025-07-02T22:20:01.015Z)
Latitude
-0.07146°
Longitude
35.47939°
Altitude
35,794.868 km
Speed
3.074 km/s
True Right ascension
19h 26m 45s
True Declination
0° 04' 17"
Sunlit
Object was in daylight at epoch
Visualization orbit readout
Latitude
0.0709°
Longitude
-160.908°
Altitude
35,777.452 km
Speed
3.075 km/s
Apparent Right ascension
06h 36m 41s
Apparent Declination
-4° 59' 17"
Sunlit
Object is in daylight
Visualization observer readout
Local Sidereal Time
20:58:50
Azimuth
51.932° ENE
Elevation
-42.653°
Doppler factor
1
Orbital elements
Apogee altitude
35,796.408 km
Perigee altitude
35,778.782 km
Semi-major axis
42,165.732 km
Eccentricity
0.00021
Inclination
0.0529°
RAAN
17.1561°
Arg. of periapsis
94.4665°
True anomaly
Unknown
Mean anomaly
180.0573°
Eccentric anomaly
Unknown
Mean motion
0.25067 °/min
Orbital period
1,436.15 mins
BSTAR
0
Loading historical data...
44800 neighbors
Loading maneuver chart data...
Loading SW <> Apogee altitude chart data...
Loading historical data...
Loading historical data...
Loading historical data...
Loading historical data...
Loading historical data...
Loading historical data...
Loading historical data...
Other satellites on launch #80 in the year 2019 (2019-11-26 UTC)

TIBA-1 Visibility

Observer location: undefined°, undefined°

TIBA-1 is likely not visible in the next few days
Span
Click to sort rows by Start time (UTC) header in descending order
Start Az.
Max El. time (UTC)
Max El. Az.
Max El.
End time (UTC)
End Az.
|